Simultaneous Nadir Overpasses (SNOs) Predictions

Prediction of SNOs between METOP-A and TERRA Satellite Orbit:

Table of predicted SNOs for the next 14.0 days since TLE Epoch: 12/28/2015
Index Date (METOP-A) Time (METOP-A) Lat,Lon (METOP-A) SZA (METOP-A ) Date (TERRA) Time (TERRA) Lat,Lon (TERRA) SZA (TERRA ) Distance(km) Time Diff (sec)
1 12/30/2015 15:56:23 -81.28, 167.60 73.06 12/30/2015 15:57:26 -81.28, 167.62 73.03 0.32 63
2 12/30/2015 16:47:03 81.29, -24.80 106.97 12/30/2015 16:46:52 81.29, -24.65 106.99 2.53 11
3 01/02/2016 11:30:47 -81.28,-126.21 73.33 01/02/2016 11:31:43 -81.28,-126.10 73.30 1.93 56
4 01/02/2016 12:21:26 81.29, 41.79 106.74 01/02/2016 12:21:09 81.28, 41.61 106.71 3.20 17
5 01/05/2016 07:05:09 -81.28, -59.67 73.63 01/05/2016 07:05:58 -81.28, -59.56 73.60 1.85 49
6 01/05/2016 07:55:49 81.29, 107.94 106.41 01/05/2016 07:55:24 81.29, 108.13 106.41 3.25 25
7 01/08/2016 02:39:32 -81.28, 6.83 73.98 01/08/2016 02:40:14 -81.28, 6.87 73.96 0.66 42
8 01/08/2016 03:30:12 81.29, 174.44 106.05 01/08/2016 03:29:40 81.28, 174.54 106.04 1.68 32
9 01/10/2016 22:13:54 -81.29, 73.68 74.36 01/10/2016 22:14:29 -81.30, 73.55 74.35 2.29 35




NCC Satellite Simultaneous Nadir Overpasses (SNOs) Prediction Service
